CWLEESTJE Weather Reports


Display with metric or nautical units.
time (UTC)temp
F
wind
direction
speed
MPH
gust
MPH
rain 1hr
in
rain 24hr
in
rain mn
in
humidity
%
barometer
mb
20260904080551 69 210 15.0 23.0 0.00 0.12 0.00 90
20260904075534 69 252 14.0 22.0 0.00 0.12 0.00 89
20260904074527 69 257 15.0 26.0 0.00 0.12 0.00 88
20260904073546 69 257 16.0 23.0 0.00 0.12 0.00 88
20260904072540 69 360 15.0 21.0 0.00 0.12 0.00 88
20260904071553 69 229 14.0 25.0 0.00 0.12 0.00 88
20260904070535 69 254 14.0 21.0 0.00 0.12 0.00 88
20260904065527 69 209 14.0 23.0 0.00 0.12 0.00 89
20260904064532 69 254 13.0 27.0 0.00 0.12 0.00 88
20260904063543 69 227 18.0 25.0 0.00 0.12 0.00 88
20260904062524 69 218 17.0 27.0 0.00 0.12 0.00 88
20260904061558 69 244 12.0 20.0 0.00 0.12 0.00 89
20260904060521 68 254 12.0 20.0 0.00 0.12 0.00 89
20260904055535 68 213 14.0 22.0 0.00 0.12 0.00 89
20260904054539 68 215 12.0 23.0 0.00 0.12 0.00 89
20260904053532 68 225 16.0 22.0 0.00 0.12 0.00 89
20260904052537 69 251 11.0 23.0 0.00 0.12 0.00 89
20260904051547 68 360 15.0 22.0 0.00 0.12 0.00 89
20260904050559 68 206 14.0 24.0 0.00 0.12 0.00 89
20260904045521 68 205 12.0 19.0 0.00 0.12 0.00 89
20260904044535 68 209 13.0 21.0 0.00 0.12 0.00 89
20260904043539 68 240 12.0 21.0 0.00 0.12 0.00 89
20260904042532 68 225 16.0 22.0 0.00 0.12 0.00 88
20260904041537 68 232 14.0 21.0 0.00 0.12 0.00 88
20260904040547 68 252 12.0 20.0 0.00 0.12 0.00 88
20260904035530 68 230 13.0 21.0 0.00 0.12 0.00 88
20260904034545 68 360 12.0 22.0 0.00 0.12 0.00 88
20260904033528 68 225 13.0 24.0 0.00 0.12 0.00 88
20260904032602 68 202 12.0 18.0 0.00 0.12 0.00 88
20260904031524 68 214 13.0 21.0 0.00 0.12 0.00 88
20260904030538 68 203 15.0 21.0 0.00 0.12 0.00 89
20260904025522 68 215 14.0 23.0 0.00 0.12 0.00 89
20260904024523 68 221 14.0 23.0 0.00 0.12 0.00 89
20260904023536 68 197 16.0 25.0 0.00 0.12 0.00 89
20260904022521 67 231 15.0 21.0 0.00 0.12 0.00 89
20260904021535 67 213 15.0 24.0 0.00 0.12 0.00 89
20260904020547 67 217 15.0 21.0 0.00 0.12 0.00 89
20260904015531 67 223 13.0 20.0 0.00 0.12 0.00 89
20260904014537 67 229 12.0 16.0 0.00 0.12 0.00 88
20260904013528 68 239 12.0 21.0 0.00 0.12 0.00 88
20260904012530 68 220 14.0 22.0 0.00 0.12 0.00 88
20260904011543 68 234 17.0 25.0 0.00 0.12 0.00 88
20260904010527 68 244 11.0 23.0 0.00 0.12 0.00 88
20260904005520 69 244 14.0 22.0 0.00 0.12 0.00 87
20260904004525 69 252 15.0 27.0 0.00 0.12 0.00 87
20260904003538 69 277 16.0 24.0 0.00 0.12 0.00 87
20260904002523 69 269 14.0 23.0 0.00 0.12 0.00 87
20260904001532 69 238 14.0 22.0 0.00 0.12 0.00 87
20260904000537 69 228 17.0 24.0 0.00 0.12 0.00 88
20260903235550 69 244 12.0 21.0 0.00 0.12 0.00 88
20260903234542 69 239 14.0 23.0 0.00 0.12 0.00 88
20260903233526 69 269 13.0 20.0 0.00 0.12 0.00 89
20260903232559 69 255 13.0 19.0 0.00 0.12 0.00 89
20260903231522 69 250 11.0 20.0 0.00 0.12 0.00 89
20260903230531 69 216 13.0 22.0 0.00 0.12 0.00 89
20260903225536 69 227 12.0 19.0 0.00 0.12 0.00 88
20260903224549 69 227 16.0 22.0 0.00 0.12 0.00 88
20260903223532 69 270 12.0 20.0 0.00 0.12 0.00 88
20260903222545 69 241 13.0 21.0 0.00 0.12 0.00 88
20260903221528 69 246 14.0 22.0 0.00 0.12 0.00 88
20260903220531 69 271 14.0 21.0 0.00 0.12 0.00 88
20260903215523 69 252 13.0 21.0 0.00 0.12 0.02 88
20260903214524 69 231 16.0 26.0 0.00 0.12 0.02 88
20260903213558 69 217 13.0 19.0 0.00 0.12 0.02 88
20260903212521 69 259 14.0 21.0 0.00 0.12 0.02 88
20260903211555 69 220 16.0 23.0 0.00 0.12 0.02 88
20260903210527 69 249 17.0 26.0 0.00 0.12 0.02 88
20260903205531 69 255 15.0 22.0 0.00 0.12 0.02 88
20260903204524 69 238 12.0 21.0 0.00 0.12 0.02 88
20260903203525 69 261 12.0 22.0 0.00 0.12 0.02 88
20260903202538 69 273 13.0 20.0 0.00 0.12 0.02 88
20260903201522 69 250 12.0 21.0 0.00 0.12 0.02 88
20260903200535 69 254 15.0 21.0 0.00 0.12 0.02 88
20260903195539 69 243 15.0 23.0 0.00 0.12 0.02 88
20260903194553 69 248 14.0 24.0 0.00 0.12 0.02 88
20260903193536 69 228 14.0 22.0 0.00 0.12 0.02 87
20260903192528 69 222 12.0 23.0 0.00 0.12 0.02 87
20260903191559 70 240 12.0 22.0 0.00 0.12 0.02 87
20260903190521 70 184 14.0 22.0 0.00 0.12 0.02 87
20260903185525 70 259 15.0 21.0 0.00 0.12 0.02 87
20260903184539 70 236 12.0 25.0 0.00 0.12 0.02 87
20260903183523 70 232 11.0 19.0 0.00 0.12 0.02 87
20260903182536 70 236 11.0 18.0 0.00 0.12 0.02 87
20260903181549 70 235 13.0 20.0 0.00 0.12 0.02 86
20260903180528 70 249 14.0 19.0 0.00 0.12 0.02 86
20260903175540 70 259 11.0 23.0 0.00 0.12 0.02 86
20260903174543 70 254 14.0 26.0 0.00 0.12 0.02 86
20260903173556 71 257 15.0 24.0 0.00 0.12 0.02 86
20260903172527 71 229 14.0 20.0 0.00 0.12 0.02 86
20260903171531 71 246 13.0 24.0 0.00 0.12 0.02 85
20260903170540 71 360 17.0 23.0 0.00 0.12 0.02 85
20260903165523 71 360 13.0 21.0 0.00 0.12 0.02 84
20260903164538 71 286 16.0 22.0 0.00 0.12 0.02 84
20260903163520 71 262 11.0 21.0 0.00 0.12 0.02 84
20260903162524 72 250 9.0 20.0 0.00 0.12 0.02 84
20260903161538 72 263 16.0 23.0 0.00 0.12 0.02 83
20260903160522 73 254 14.0 27.0 0.00 0.12 0.02 82
20260903155535 73 266 14.0 25.0 0.00 0.12 0.02 81
20260903154544 74 257 18.0 31.0 0.00 0.12 0.02 79
20260903153526 74 360 22.0 29.0 0.00 0.12 0.02 80
20260903152530 74 260 20.0 26.0 0.00 0.12 0.02 79
20260903151542 73 225 16.0 26.0 0.00 0.12 0.02 79
20260903150536 74 266 11.0 25.0 0.00 0.12 0.02 79
20260903145540 74 271 19.0 27.0 0.00 0.12 0.02 79
20260903144535 74 260 16.0 25.0 0.00 0.12 0.02 79
20260903143538 73 252 19.0 25.0 0.00 0.12 0.02 80
20260903142549 73 248 17.0 25.0 0.00 0.12 0.02 80
20260903141533 72 266 18.0 27.0 0.00 0.12 0.02 82
20260903140546 72 279 15.0 24.0 0.00 0.12 0.02 82
20260903135550 72 279 17.0 26.0 0.00 0.12 0.02 82
20260903134541 72 271 15.0 26.0 0.00 0.12 0.02 81
20260903133523 72 206 15.0 26.0 0.00 0.12 0.02 82
20260903132537 72 267 17.0 27.0 0.00 0.12 0.02 81
20260903131521 72 275 21.0 30.0 0.00 0.12 0.02 80
20260903130521 73 281 17.0 26.0 0.00 0.12 0.02 80
20260903125535 72 265 17.0 30.0 0.00 0.12 0.02 81
20260903124548 73 253 21.0 32.0 0.00 0.12 0.02 80
20260903123532 73 272 19.0 28.0 0.00 0.12 0.02 80
20260903122546 73 258 17.0 28.0 0.00 0.12 0.02 80
20260903121530 73 235 17.0 29.0 0.00 0.12 0.02 81
20260903120604 72 262 19.0 30.0 0.00 0.12 0.02 82
20260903115524 72 286 17.0 27.0 0.00 0.12 0.02 83
20260903114537 72 277 18.0 29.0 0.00 0.12 0.02 82
20260903113540 72 252 14.0 26.0 0.00 0.12 0.02 84
20260903112524 71 283 20.0 28.0 0.00 0.12 0.02 84
20260903111538 71 259 16.0 28.0 0.00 0.12 0.02 86
20260903110521 70 248 14.0 25.0 0.12 0.12 0.02 87
20260903105554 70 274 16.0 27.0 0.12 0.12 0.02 89
20260903104542 69 239 15.0 27.0 0.12 0.12 0.02 89
20260903103526 68 233 17.0 31.0 0.12 0.12 0.02 89
20260903102540 68 247 20.0 27.0 0.12 0.12 0.02 89
20260903101524 69 240 14.0 23.0 0.12 0.12 0.02 88
20260903100558 69 273 16.0 27.0 0.00 0.00 0.00 87
20260903095522 69 279 18.0 26.0 0.00 0.00 0.00 87
20260903094535 68 277 15.0 23.0 0.00 0.00 0.00 88
20260903093539 68 257 12.0 26.0 0.00 0.00 0.00 88
20260903092527 68 244 17.0 26.0 0.00 0.00 0.00 89
20260903091532 67 246 15.0 21.0 0.00 0.00 0.00 89
20260903090544 67 251 14.0 23.0 0.00 0.00 0.00 89
20260903085527 67 237 16.0 26.0 0.00 0.00 0.00 89
20260903084541 67 271 15.0 20.0 0.00 0.00 0.00 89
20260903083524 67 250 13.0 23.0 0.00 0.00 0.00 89
20260903082528 67 257 12.0 24.0 0.00 0.00 0.00 89
20260903081540 67 247 14.0 21.0 0.00 0.00 0.00 89